Syracuse, NY

10:24 AM EDT on June 24, 2017 (GMT -0400)
Syracuse Hancock International

Weather History for KSYR - May, 2013

Change the Weather History Date:

Monday, May 20, 2013

  Actual Average Record
Temperature  
Mean Temperature 69 °F 59 °F  
Max Temperature 82 °F 70 °F 90 °F (1962)
Min Temperature 55 °F 48 °F 32 °F (1944)
Degree Days  
Heating Degree Days 0 7  
Month to date heating degree days 124 192  
Since 1 July heating degree days 6021 6527  
Cooling Degree Days 4 1  
Month to date cooling degree days 5 10  
Year to date cooling degree days 5 14  
Growing Degree Days 18 (Base 50)    
Moisture  
Dew Point 60 °F    
Average Humidity 72    
Maximum Humidity 93    
Minimum Humidity 51    
Precipitation  
Precipitation 0.00 in 0.11 in 0.90 in (1969)
Month to date precipitation 0.86 2.02  
Year to date precipitation 10.89 12.73  
Snow  
Snow 0.00 in 0.00 in 0.00 in (2002)
Month to date snowfall T 0.1  
Since 1 July snowfall 115.4 123.8  
Snow Depth 0.00 in    
Sea Level Pressure  
Sea Level Pressure 29.97 in    
Wind  
Wind Speed 4 mph (East)    
Max Wind Speed 9 mph    
Max Gust Speed -    
Visibility 10 miles    
Events      
T = Trace of Precipitation, MM = Missing Value Source: NWS Daily Summary

Daily Weather History Graph

Daily Weather History Graph

Search for Another Location

Airport or City:

Trip Planner

Search our weather history database for the weather conditions in past years. The results will help you decide how hot, cold, wet, or windy it might be!

Date:

Astronomy

May. 20, 2013 Rise Set
Actual Time 5:35 AM EDT 8:26 PM EDT
Civil Twilight 5:02 AM EDT 9:00 PM EDT
Nautical Twilight 4:20 AM EDT 9:42 PM EDT
Astronomical Twilight 3:31 AM EDT 10:31 PM EDT
Moon 3:24 PM EDT (5/20) 2:37 AM EDT (5/20)
Length of Visible Light 15h 57m
Length of Day
14h 50m
Waxing Gibbous, 75% of the Moon is Illuminated
May 20
Waxing Gibbous
May 25
Full
May 31
Last Quarter
Jun 8
New
Jun 16
First Quarter

Hourly Weather History & Observations

Time (EDT) Temp. Heat Index Dew Point Humidity Pressure Visibility Wind Dir Wind Speed Gust Speed Precip Events Conditions
12:54 AM 63.0 °F - 55.0 °F 75% 30.06 in 10.0 mi SSE 6.9 mph - N/A   Overcast
1:54 AM 63.0 °F - 55.9 °F 78% 30.04 in 10.0 mi SE 4.6 mph - N/A   Overcast
2:54 AM 61.0 °F - 55.0 °F 81% 30.02 in 10.0 mi Calm Calm - N/A   Overcast
3:54 AM 59.0 °F - 55.9 °F 90% 30.01 in 10.0 mi East 3.5 mph - N/A   Overcast
4:54 AM 59.0 °F - 55.0 °F 87% 30.00 in 10.0 mi East 4.6 mph - N/A   Mostly Cloudy
5:33 AM 57.2 °F - 53.6 °F 88% 30.01 in 10.0 mi East 4.6 mph - N/A   Partly Cloudy
5:54 AM 55.9 °F - 54.0 °F 93% 30.02 in 10.0 mi NE 3.5 mph - N/A   Scattered Clouds
6:54 AM 59.0 °F - 55.9 °F 90% 30.04 in 10.0 mi Calm Calm - N/A   Scattered Clouds
7:54 AM 63.0 °F - 57.9 °F 84% 30.04 in 10.0 mi Calm Calm - N/A   Scattered Clouds
8:54 AM 68.0 °F - 60.1 °F 76% 30.05 in 10.0 mi Calm Calm - N/A   Overcast
9:54 AM 73.0 °F - 61.0 °F 66% 30.03 in 10.0 mi Variable 4.6 mph - N/A   Mostly Cloudy
10:54 AM 75.0 °F - 61.0 °F 62% 30.01 in 10.0 mi Calm Calm - N/A   Mostly Cloudy
11:54 AM 75.0 °F - 62.1 °F 64% 30.00 in 10.0 mi South 5.8 mph - N/A   Overcast
12:54 PM 78.1 °F - 62.1 °F 58% 29.99 in 10.0 mi Variable 3.5 mph - N/A   Overcast
1:54 PM 78.1 °F - 62.1 °F 58% 29.96 in 10.0 mi Calm Calm - N/A   Mostly Cloudy
2:54 PM 80.1 °F 81.7 °F 64.0 °F 58% 29.96 in 10.0 mi North 8.1 mph - N/A   Mostly Cloudy
3:54 PM 81.0 °F 82.2 °F 63.0 °F 54% 29.94 in 10.0 mi Variable 3.5 mph - N/A   Scattered Clouds
4:54 PM 82.0 °F 83.1 °F 63.0 °F 52% 29.94 in 10.0 mi Calm Calm - N/A   Mostly Cloudy
5:54 PM 80.1 °F 81.5 °F 63.0 °F 56% 29.92 in 10.0 mi ENE 6.9 mph - N/A   Mostly Cloudy
6:54 PM 78.1 °F - 63.0 °F 60% 29.88 in 10.0 mi East 9.2 mph - N/A   Mostly Cloudy
7:54 PM 77.0 °F - 63.0 °F 62% 29.88 in 10.0 mi ENE 5.8 mph - N/A   Mostly Cloudy
8:54 PM 72.0 °F - 62.1 °F 71% 29.89 in 10.0 mi Calm Calm - N/A   Scattered Clouds
9:54 PM 71.1 °F - 62.1 °F 73% 29.91 in 10.0 mi East 3.5 mph - N/A   Scattered Clouds
10:54 PM 68.0 °F - 62.1 °F 81% 29.90 in 10.0 mi SE 5.8 mph - N/A   Scattered Clouds
11:54 PM 66.0 °F - 61.0 °F 84% 29.90 in 10.0 mi ESE 4.6 mph - N/A   Scattered Clouds